Location: Hylvaty SDH
(49.9612°N, 16.4057°E)
Time: 11:44:03
(UTC+01:00)

A-11 Canister half - Pass Details

Date: 02 October 2020
Orbit: 1526 x 1683 km, 47.3° (Epoch: 28 October)

Event Time Altitude Azimuth Distance (km) Brightness Sun altitude
Rises 02:00:30 0° 272° (W) 4,687 - -40.9°
Reaches altitude 10° 02:03:32 10° 271° (W) 3,714 - -40.7°
Maximum altitude 02:12:53 75° 188° (S) 1,614 - -40.0°
Exits shadow 02:17:11 38° 112° (ESE) 2,250 9.8 -39.7°
Drops below altitude 10° 02:22:31 10° 105° (ESE) 3,820 11.2 -39.2°
Sets 02:25:40 0° 104° (ESE) 4,827 11.8 -39.0°
